Regional Weather Roundup
Issued by NWS

Home | Current Version | Previous Version | Graphics & Text | Print | Product List | Glossary On
Versions: 1 2 3 4 5 6 7 8 9 10 11 12 13 14 15 16 17 18 19 20 21 22 23 24 25 26 27 28 29 30 31 32 33 34 35 36 37 38 39 40 41 42 43 44 45 46 47 48 49 50
000
ASUS43 KDTX 191601
RWRMI
MICHIGAN HOURLY REGIONAL WEATHER ROUNDUP
NATIONAL WEATHER SERVICE DETROIT/PONTIAC MI
1100 AM EST SUN FEB 19 2017

NOTE: "FAIR" INDICATES FEW OR NO CLOUDS BELOW 12,000 FEET WITH NO
SIGNIFICANT WEATHER AND/OR OBSTRUCTION TO VISIBILITY.

MIZ047>049-052>055-059>063-066>070-074>076-081>083-191700-
SOUTHEAST LOWER MICHIGAN

CITY           SKY/WX    TMP DP  RH WIND       PRES   REMARKS
ADRIAN         SUNNY     53  38  56 W8        30.02R
ALMA           SUNNY     50  31  49 NW7       30.01S
ANN ARBOR      SUNNY     54  34  46 W8        30.00R
BAD AXE        SUNNY     48  34  58 W8        29.97R
CARO           SUNNY     49  36  60 W7        29.98R
DETROIT CITY   SUNNY     55  34  45 W7        29.98R
DETROIT        MOSUNNY   54  35  48 W9        30.00R
FLINT          SUNNY     50  34  54 NW10      30.01R
GROSSE ILE     SUNNY     52  36  53 W6        29.98R
HILLSDALE      SUNNY     52  34  50 W6        30.01S
HOWELL         SUNNY     52  34  51 W7        30.00S

CITY           SKY/WX    TMP DP  RH WIND       PRES   REMARKS
JACKSON        SUNNY     52  33  48 NW6       30.02R
LAMBERTVILLE   SUNNY     53  39  58 W7        30.01R
LANSING        SUNNY     51  32  48 NW7       30.02R
LAPEER         FAIR      51  34  53 N9G16     29.99R
MASON          SUNNY     51  36  57 W5        30.01S
MONROE         SUNNY     51  40  63 W12       30.00R
PONTIAC        MOSUNNY   54  33  45 NW8       29.98R
PORT HOPE        N/A     49  34  56 NW8       29.94R
PORT HURON     SUNNY     52  36  54 N8        29.97R
TRI CITIES     SUNNY     51  35  54 NW7       30.00R
MIDLAND        FAIR      51  31  45 NW7       29.99S
TROY           SUNNY     56  30  37 NW9       30.00R
SAGINAW HB     SUNNY     50  32  50 NW9       29.99S
$$
MIZ043>046-050>051-056>058-064>065-071>073-077>080-191700-
SOUTHWEST LOWER MICHIGAN

CITY           SKY/WX    TMP DP  RH WIND       PRES   REMARKS
BATTLE CREEK   SUNNY     52  35  52 W6        30.03R
BENTON HARBOR  SUNNY     53  35  50 W6        30.05R
BIG RAPIDS     SUNNY     49  31  50 W3        30.01R
COLDWATER      SUNNY     52  35  51 W7        30.03R
FREMONT        FAIR      48  33  55 N3        30.03R
HOLLAND        SUNNY     53  35  50 CALM      30.04R
GRAND RAPIDS   MOSUNNY   52  33  48 NW5       30.03R
IONIA          FAIR      50  33  50 NW6       30.01S
KALAMAZOO      SUNNY     54  31  41 NW3       30.04R
LUDINGTON      SUNNY     49  33  55 NW7       30.03R
MARSHALL       SUNNY     53  34  48 W6        30.02R
MOUNT PLEASANT SUNNY     49  32  52 NW5       30.00R
MUSKEGON       MOSUNNY   54  33  45 NW3       30.04R
SOUTH HAVEN    SUNNY     51  34  52 NW5       30.05R
$$
MIZ016>042-191700-
NORTHERN LOWER MICHIGAN

CITY           SKY/WX    TMP DP  RH WIND       PRES   REMARKS
ALPENA         SUNNY     47  33  58 NW10      29.97R
BEAVER ISLAND  CLOUDY    40  32  74 NW5       30.01R
BELLAIRE       SUNNY     43  32  64 CALM      30.00S
CADILLAC       SUNNY     47  31  54 NW6       29.98R
CHARLEVOIX     MOSUNNY   43  33  68 NW7       30.03R
FRANKFORT      SUNNY     47  34  59 NW6       30.02R
GAYLORD        SUNNY     45  29  53 NW8       29.97R
GRAYLING       SUNNY     44  32  63 NW6       29.99R
HARBOR SPRINGS SUNNY     37  32  82 SW3       30.00R
HOUGHTON LAKE  SUNNY     47  31  53 VRB5      29.98R
MANISTEE       SUNNY     48  33  56 W6        30.03R
OSCODA         SUNNY     49  32  50 NW10G21   29.95R
PELLSTON       SUNNY     40  30  67 NW13      29.99R WCI  32
ROGERS CITY    SUNNY     45  30  56 NW10G17   29.98R
TRAVERSE CITY  MOSUNNY   46  32  58 NE6       30.01R
$$
MIZ007>008-015-191700-
EASTERN UPPER MICHIGAN

CITY           SKY/WX    TMP DP  RH WIND       PRES   REMARKS
KINROSS        SUNNY     39  30  70 N13       29.97R WCI  31
MACKINAC ISLAN SUNNY     41  32  69 NW6       29.98R
NEWBERRY       MOSUNNY   39  30  70 N8        29.98R WCI  33
S. S. MARIE    MOSUNNY   42  31  64 W6        29.95R
MUNISING         N/A     37  32  82 NW8       30.01R WCI  31
$$
MIZ004>006-011>014-085-191700-
CENTRAL UPPER MICHIGAN

CITY           SKY/WX    TMP DP  RH WIND       PRES   REMARKS
MANISTIQUE     CLOUDY    39  32  76 N6        30.01R WCI  35
ESCANABA       CLOUDY    43  30  60 N6        30.03R
MENOMINEE      SUNNY     48  30  49 NW5       30.03R
SAWYER-GWINN   SUNNY     37  28  70 N8        30.00R WCI  31
$$
MIZ001>003-009>011-084-191700-
WESTERN UPPER MICHIGAN

CITY           SKY/WX    TMP DP  RH WIND       PRES   REMARKS
IRON MOUNTAIN  CLOUDY    41  29  62 CALM      30.01R
HOUGHTON       CLOUDY    39  28  64 CALM      30.01R
COPPER HARBOR    N/A     38  31  76 N6        30.00R WCI  33
IRONWOOD       MOSUNNY   40  30  67 CALM      30.01R
$$

ABBREVIATIONS USED IN REMARKS
   TC - TEMPERATURE IN CELSIUS
  WCI - WIND CHILL INDEX
   HX - HEAT INDEX
  VSB - VISIBILITY




USA.gov is the U.S. government's official web portal to all federal, state and local government web resources and services.